Terminal Aerodrome Forecast
Issued by NWS Springfield, MO

Home | Current Version | Previous Version | Text Only | Print | Product List | Glossary On
Versions: 1 2 3 4 5 6 7 8 9 10 11 12 13 14 15 16 17 18 19 20 21 22
000
FTUS43 KSGF 051700
TAFSGF
TAF
KSGF 051720Z 0518/0618 17008KT P6SM SCT030 SCT250
     FM060000 16007KT P6SM SKC
     FM060600 16011KT P6SM SCT250 WS015/22035KT
     FM061500 20014G20KT P6SM BKN050=

USA.gov is the U.S. government's official web portal to all federal, state and local government web resources and services.